sat.trackr.live / text

‹ back to catalog

STARLINK-4539

NORAD 53423 · 2022-097AM

PAYLOAD ACTIVE UNKNOWN

§ Identity

Operator
Country
US
Launch date
2022-08-10
Launch site
AFETR
Launch vehicle
Mass (kg)
RCS (m²)

Purposes: comms

External: N2YO · Heavens-Above · Gunter

§ Orbital elements

Epoch: 2026-09-19T20:38:11.835744Z

Period
94.01 min
Inclination
53.1607°
Eccentricity
0.0001221
Mean motion
15.31701582 rev/d
Perigee alt
469.9 km
Apogee alt
471.6 km
Semi-major
6,848.9 km
B*
1.3078e-5
RAAN
306.7369°
Arg perigee
86.8866°
Mean anomaly
273.2275°
Rev number
22,815

§ Raw data

STARLINK-45391 53423U 22097AM  26262.85985921  .00000041  00000+0  13078-4 0  99992 53423  53.1607 306.7369 0001221  86.8866 273.2275 15.31701582228152

JSON: /api/v1/satellites/53423 · /tle

For live sub-satellite position, see the globe view (requires WebGL).

§ Visibility from observer

Set your observer location to see the next 7 days of passes ≥ 10°. The values pass through the URL so the page stays shareable.

No JS? Fill the form by hand. The geolocation button needs JavaScript.